Theta_e
327 327 328 326 324 325 326 324 321 321 322 323 323 322 322 322 322 318 315 314 313 313 313 313 312 312 313 313 314 314 313 311 310 308 305 303 302 301 302 304 306 309 309 308 309 310 310 311 310 310 310 310 310 310 310 310 309 310 310 310 310 310 310 311 311 311 311 311 311 311 311 311 311 312 312 312 311 311 312 312 311 311 311 311 311
326 326 327 327 326 326 324 323 322 322 322 322 322 322 322 322 322 319 316 315 314 313 314 315 314 314 315 316 315 315 313 312 311 309 305 303 303 301 303 307 306 306 307 308 309 310 310 310 310 310 309 309 309 309 309 309 309 309 309 309 310 310 310 310 310 310 311 310 311 311 311 311 311 311 310 310 310 310 310 310 310 311 311 312 312
325 325 326 326 326 325 323 322 322 321 320 321 322 321 322 322 322 321 318 316 315 314 316 318 316 315 316 316 316 315 314 312 311 309 306 305 303 301 303 307 308 308 310 310 309 309 309 309 309 309 308 308 309 309 308 309 309 309 309 309 309 310 310 310 310 310 310 310 310 310 310 310 310 309 309 309 309 309 310 310 310 310 310 311 311
323 323 324 324 324 324 322 321 320 319 318 320 321 319 320 321 321 321 320 318 318 316 317 318 317 316 316 316 316 315 313 312 311 310 308 305 303 301 302 306 308 308 309 309 309 309 309 308 308 308 307 308 308 308 308 308 308 309 309 309 309 309 309 310 310 310 310 309 310 309 309 308 308 309 309 309 309 309 309 309 309 309 310 310 311
322 322 322 322 323 323 321 320 320 318 317 319 320 319 319 320 320 321 320 320 320 319 318 318 317 317 317 316 315 315 314 312 312 310 308 305 303 302 302 304 305 304 304 306 308 308 308 308 308 308 308 307 307 308 308 308 308 308 308 309 308 308 308 308 308 308 308 308 308 308 308 308 308 308 309 309 309 309 309 309 309 309 310 310 310
322 321 321 321 321 321 321 320 320 319 316 317 319 320 319 319 320 320 320 320 320 319 318 318 318 317 316 316 315 315 314 313 312 310 307 305 303 304 304 304 303 302 303 305 307 308 308 308 308 308 308 307 307 308 308 308 308 308 308 308 307 307 307 307 307 307 307 307 307 307 307 308 308 308 309 309 308 308 309 309 309 309 309 309 309
321 320 320 320 320 319 319 319 319 318 317 317 318 319 319 320 319 319 319 319 319 319 318 318 317 317 316 316 315 314 313 312 311 309 307 304 304 304 304 302 301 302 304 306 307 307 307 307 307 307 307 307 307 307 307 307 307 307 307 306 306 306 306 306 306 306 306 307 307 307 307 307 307 308 308 308 308 308 308 308 308 308 307 307 307
319 320 320 319 319 318 317 318 318 317 317 316 315 316 318 319 319 319 319 319 319 319 318 317 317 316 316 315 315 314 313 311 310 309 307 305 304 302 300 300 301 302 303 304 305 307 307 307 307 307 307 307 307 307 307 307 307 307 307 306 305 305 305 305 305 305 306 306 306 306 306 306 307 307 307 307 307 307 306 306 306 306 306 306 306
318 319 320 321 320 319 319 319 319 317 317 316 317 316 316 316 318 319 319 318 318 318 317 317 317 316 316 315 314 314 312 311 310 309 306 304 301 299 299 300 300 301 302 303 305 306 307 307 307 307 307 306 306 307 306 306 306 306 306 306 305 305 304 304 304 304 304 304 304 304 305 306 306 306 306 306 305 305 305 304 304 304 304 304 305
319 318 319 320 320 320 320 320 320 319 318 318 318 319 317 315 317 318 317 315 317 317 317 317 317 317 316 315 314 313 312 311 311 309 307 303 300 298 297 297 297 299 303 306 306 305 306 306 306 306 306 305 306 306 306 306 306 306 305 305 304 303 303 302 302 302 302 303 303 303 304 305 305 305 305 304 304 304 304 303 303 303 303 303 304
321 320 320 320 320 320 320 321 320 320 320 319 319 318 317 315 315 315 313 311 314 317 318 317 317 316 316 315 313 312 312 312 311 310 307 305 301 298 296 296 295 297 302 306 306 305 306 306 305 305 305 304 304 305 305 305 305 305 304 303 302 302 302 301 301 301 301 302 302 302 303 303 303 303 303 304 304 304 303 303 302 303 303 302 304
320 320 320 321 321 320 320 320 320 320 321 321 320 319 318 315 313 313 311 311 314 317 317 318 317 316 315 314 313 312 312 312 312 310 308 305 302 298 296 296 294 296 303 306 306 305 306 305 304 304 304 304 304 304 305 304 304 304 303 302 303 303 303 302 302 301 301 301 301 301 302 302 302 303 303 303 303 303 302 302 301 302 302 301 302
318 318 318 319 320 321 320 320 320 320 321 320 320 320 319 318 315 313 312 313 316 317 318 317 316 316 315 314 313 313 313 312 312 310 308 306 303 298 296 296 294 297 304 307 306 305 305 304 304 303 303 304 304 303 303 303 303 303 303 303 303 303 303 303 302 302 302 301 301 301 302 302 302 302 302 302 303 302 302 301 301 301 301 301 303
316 316 316 317 318 319 320 320 320 320 320 320 319 319 319 318 317 316 315 314 315 317 318 317 315 315 316 314 313 313 313 312 311 310 308 306 303 298 296 295 294 296 302 304 304 305 304 303 304 303 303 303 303 303 303 303 303 302 302 303 304 303 303 303 302 302 302 301 300 299 299 301 302 303 303 303 303 303 302 302 302 302 302 302 302
315 316 316 316 316 317 318 319 318 319 320 319 319 319 317 316 317 319 319 317 316 316 317 317 316 315 315 315 313 313 312 311 311 310 309 307 303 298 296 295 294 297 301 303 303 304 303 303 303 303 303 303 303 303 302 302 302 300 299 302 304 304 304 303 303 303 302 301 299 297 297 301 303 303 304 304 304 303 303 303 303 303 302 302 302
315 315 315 315 316 316 316 316 316 317 318 318 317 318 318 318 319 320 320 319 317 316 316 316 316 316 316 315 313 313 312 311 311 311 309 307 304 299 296 295 295 300 303 304 304 304 303 303 303 303 303 303 303 303 302 302 301 298 297 301 303 303 303 303 303 303 302 300 297 295 298 303 304 304 304 304 304 304 303 303 303 303 302 302 302
316 315 315 315 315 316 316 316 316 317 318 318 317 318 318 319 319 319 318 318 318 317 316 316 315 315 315 315 313 313 312 312 311 310 309 307 304 300 296 294 297 303 305 305 304 304 303 304 303 303 303 303 303 303 302 301 300 298 297 299 299 299 302 304 304 303 301 297 295 295 300 304 304 304 305 304 304 304 303 304 303 303 302 303 303
315 315 315 315 315 315 316 316 316 317 318 318 317 317 317 317 317 317 317 317 317 317 317 316 315 315 315 314 313 313 312 312 312 310 308 307 304 299 295 294 298 304 306 305 305 304 304 304 304 302 301 301 300 300 299 299 298 297 297 296 295 297 302 304 302 300 296 294 294 298 302 304 305 304 305 304 304 304 304 303 303 303 303 303 303
313 314 314 315 315 315 315 315 315 315 316 317 317 317 316 317 317 317 317 317 317 317 316 316 316 315 315 314 313 313 313 312 312 310 309 307 304 300 295 294 299 306 307 305 305 305 304 305 304 302 300 298 296 295 295 295 294 294 294 294 293 295 298 298 296 295 293 293 296 301 303 304 305 305 304 304 304 304 304 303 303 303 303 303 303
312 313 313 314 314 315 315 314 314 314 314 316 317 317 316 316 316 317 317 317 316 316 315 315 314 314 314 314 313 313 313 312 312 310 309 308 306 301 296 293 298 305 307 306 306 306 306 305 304 303 300 298 296 294 293 293 293 292 292 293 292 293 293 293 293 293 292 293 297 301 303 304 305 305 305 305 304 304 304 303 303 303 303 303 303
312 312 313 313 313 314 314 314 314 315 315 315 315 316 316 316 315 316 317 316 316 316 316 314 313 313 313 313 313 313 312 312 312 311 309 308 307 303 297 293 296 302 306 307 306 306 306 305 305 304 303 301 300 297 293 292 292 292 292 293 293 293 293 293 293 292 293 295 298 301 303 304 304 304 304 304 304 304 303 303 303 303 303 303 303
310 311 312 312 312 312 313 313 313 314 314 315 316 315 315 316 316 316 316 317 316 316 316 315 314 313 313 313 313 312 312 312 312 310 309 308 308 305 299 294 294 298 303 306 307 306 305 305 305 305 304 304 303 299 294 293 293 293 292 293 293 293 293 293 293 293 294 296 298 300 302 303 303 304 303 303 304 303 303 303 303 303 303 303 304
309 310 310 311 311 312 312 312 312 312 313 314 315 315 315 315 315 315 315 315 316 316 315 315 314 314 313 313 312 312 311 311 311 310 309 309 309 306 300 295 293 294 298 303 306 306 306 305 305 305 305 304 302 298 293 293 293 293 293 293 293 293 293 292 293 294 295 296 299 301 302 302 302 303 303 302 303 303 303 304 303 303 303 304 304
308 309 310 310 311 311 311 311 311 311 312 312 313 315 315 315 315 315 314 314 314 315 315 314 314 313 313 313 312 312 311 311 311 310 310 310 310 307 301 296 294 293 295 298 302 303 303 304 304 304 304 302 299 295 292 292 293 293 293 293 293 293 293 292 294 295 296 297 300 301 301 301 302 302 302 302 303 303 304 303 303 303 303 304 304
307 308 309 310 310 311 311 311 311 311 311 311 312 313 314 315 315 315 314 314 313 313 313 313 314 313 313 313 313 312 311 311 310 310 310 310 309 307 303 297 294 293 293 295 296 297 297 298 300 300 299 297 295 293 292 293 293 293 293 293 293 293 293 293 295 296 296 298 300 300 299 300 301 301 302 303 303 304 303 303 303 303 304 304 304
306 308 308 309 309 310 311 311 310 310 311 311 312 312 313 313 314 314 314 314 314 313 312 312 313 313 313 313 313 313 312 311 310 309 309 310 309 308 306 301 295 294 293 293 293 293 293 294 294 294 294 294 293 293 293 293 292 292 293 292 292 293 293 294 296 296 295 296 299 299 299 300 300 301 302 303 303 303 303 303 303 303 304 304 304
307 308 308 309 309 309 310 310 310 310 310 311 311 312 312 313 313 313 313 313 313 313 312 312 312 312 312 312 312 312 312 311 310 309 309 309 309 308 308 304 298 294 294 294 293 293 293 292 292 292 293 293 293 293 293 293 292 292 292 292 293 294 294 294 295 294 292 293 296 297 297 298 300 301 302 302 303 303 302 302 303 304 304 304 303
307 308 308 308 308 309 309 309 310 310 310 310 311 311 312 312 312 313 313 313 313 313 313 312 312 312 312 312 312 312 311 310 309 309 309 309 309 308 308 306 301 295 294 294 293 292 292 292 292 292 292 293 293 293 292 292 293 293 293 294 294 294 294 295 295 295 294 294 293 294 296 298 300 301 302 302 303 303 302 302 303 303 303 303 303
307 307 307 308 308 308 309 309 309 309 309 310 310 310 311 311 311 311 312 312 312 313 312 311 312 312 312 312 312 312 311 310 309 309 309 309 308 308 308 308 304 297 294 293 293 292 292 292 292 292 293 293 293 293 292 294 296 296 296 296 296 295 296 297 297 297 298 296 293 294 297 299 299 301 301 301 302 303 303 302 302 302 302 303 303
307 307 307 307 308 308 308 308 308 308 308 308 308 309 309 310 310 310 311 311 312 313 312 312 312 312 312 312 312 311 311 310 309 308 309 309 308 307 308 308 305 299 293 292 293 292 291 292 293 292 293 293 293 294 295 297 299 299 299 299 298 297 297 297 296 297 297 294 292 294 297 298 299 300 301 301 301 302 303 302 302 302 302 302 303
307 307 307 307 307 308 308 308 308 308 307 308 309 309 308 308 308 308 309 310 311 312 312 312 312 313 312 312 312 311 311 311 310 309 309 308 308 307 307 307 306 302 296 292 292 292 294 297 296 294 294 296 296 298 299 299 300 299 299 299 299 298 297 296 295 295 294 292 294 295 296 298 299 299 300 300 301 302 303 302 302 302 302 302 303
306 306 306 307 307 307 308 308 308 308 308 309 309 308 307 305 305 306 306 307 309 311 312 312 312 313 312 312 312 311 311 311 310 309 309 308 307 307 306 306 306 305 299 294 292 292 295 297 296 294 297 299 299 299 299 299 299 299 298 298 298 298 298 297 295 293 291 292 295 296 296 297 298 298 298 300 301 301 302 302 302 302 302 302 302
306 306 306 307 307 307 307 308 307 307 307 309 309 308 306 305 306 307 307 307 308 309 310 311 311 312 312 312 312 311 310 310 310 309 308 307 307 306 305 304 305 305 300 295 293 293 294 293 292 294 298 299 298 298 298 298 298 298 297 297 298 297 297 296 293 292 291 291 293 295 296 297 297 297 299 301 301 301 302 302 302 302 302 301 301
306 306 307 307 307 307 307 307 307 306 307 308 309 308 306 306 307 307 307 307 308 308 309 310 310 310 311 311 311 310 310 310 310 309 308 307 306 306 305 304 304 304 299 294 292 292 292 291 291 293 297 298 298 298 298 297 296 295 295 296 296 295 295 293 291 292 292 291 294 297 297 296 297 297 299 301 301 301 301 301 301 302 302 301 301
306 306 306 306 307 307 307 307 307 307 307 307 307 306 305 306 307 307 308 308 309 309 309 310 309 309 309 309 309 309 309 309 309 309 308 307 306 306 305 303 303 303 298 294 292 291 291 291 291 292 295 297 297 297 297 296 294 293 293 293 293 293 293 292 291 292 291 292 295 298 296 296 297 297 298 300 301 301 301 301 301 302 301 301 301
306 306 306 306 306 306 305 306 307 307 307 306 306 306 306 306 307 308 308 308 309 309 310 309 309 309 309 308 308 308 308 308 308 308 308 307 307 306 304 302 303 302 298 294 292 291 291 291 291 292 294 296 296 296 295 294 293 292 292 292 292 292 292 292 291 292 291 291 293 294 293 295 297 297 297 299 301 300 301 301 300 301 301 301 300
306 306 306 305 305 305 305 306 307 307 306 306 306 307 306 306 307 307 307 307 307 308 309 309 308 308 308 308 308 307 307 307 306 306 306 306 305 304 302 301 301 301 297 294 292 292 291 291 291 292 295 296 295 294 294 292 292 292 292 291 292 292 292 292 292 292 291 290 292 293 293 295 298 298 296 297 299 300 300 299 298 299 300 300 299
305 305 305 305 305 305 305 306 306 306 306 305 306 306 306 305 306 307 307 306 306 306 307 307 307 307 307 307 307 306 306 305 305 305 305 304 303 301 300 299 300 299 297 295 294 292 291 291 291 292 295 296 295 295 294 293 292 292 292 292 292 291 291 292 292 292 291 290 292 294 294 295 297 298 295 295 297 299 299 299 298 297 298 299 299
305 305 305 304 304 305 305 305 306 306 305 304 304 305 306 306 306 306 307 306 305 305 305 305 306 306 306 306 305 305 304 303 303 303 303 302 301 299 297 298 299 299 297 295 294 294 294 293 292 291 294 296 296 295 294 294 293 293 292 292 292 291 292 292 291 291 291 290 291 293 293 293 295 296 295 294 295 296 298 299 299 298 297 299 299
304 304 304 304 304 305 305 305 305 304 304 303 304 305 305 305 306 306 306 305 304 304 303 303 304 304 305 305 304 303 302 302 302 301 300 299 299 298 297 298 300 300 298 296 295 296 297 296 295 294 294 296 296 296 295 294 294 294 293 292 292 292 292 292 291 291 292 291 290 291 292 292 293 294 294 295 296 296 297 298 299 298 298 298 299
303 304 304 304 304 304 304 304 304 304 303 303 303 304 305 305 305 306 306 305 304 303 303 303 303 303 303 303 303 302 301 300 300 300 299 299 299 299 299 299 300 301 299 298 296 296 297 298 297 296 296 296 296 296 295 295 294 294 293 293 293 292 292 292 291 291 291 291 291 291 291 291 291 292 294 295 295 295 295 296 296 297 297 297 297
301 303 304 303 304 304 303 303 304 304 304 304 303 303 304 304 304 305 305 305 305 304 304 304 303 303 303 303 302 301 300 299 299 299 299 299 300 301 300 300 300 300 300 299 297 296 297 298 297 297 296 296 296 296 295 295 294 293 293 292 292 292 292 292 291 291 291 291 290 290 291 291 291 293 294 295 294 294 295 296 295 296 296 296 296
300 303 303 303 303 303 303 303 303 304 305 305 304 303 303 303 303 304 305 305 305 305 305 304 304 303 303 303 302 301 300 299 299 298 298 299 300 301 301 301 301 300 300 299 298 297 297 297 297 297 297 296 296 296 295 294 293 292 292 291 291 292 291 291 291 291 291 290 290 290 290 290 290 292 293 293 293 294 296 296 296 296 296 295 295
299 302 303 303 303 303 303 303 303 303 303 304 304 304 304 303 303 303 304 304 305 305 305 304 304 303 303 303 302 302 301 300 299 299 298 299 301 301 301 301 301 301 300 300 299 298 297 297 297 297 296 296 296 295 294 293 292 292 291 291 291 291 291 291 291 291 291 290 290 290 290 290 290 291 292 292 292 294 295 296 295 296 295 294 294
297 300 302 302 302 302 302 302 303 303 303 303 304 305 304 303 303 303 303 304 304 305 305 304 304 303 303 303 303 302 301 301 300 300 300 301 301 301 301 301 301 301 300 300 299 298 298 297 297 296 296 296 295 295 294 293 292 292 291 291 292 292 291 291 291 291 291 290 290 291 290 289 290 291 292 292 291 292 293 294 294 295 296 295 295
296 299 301 302 302 302 302 302 302 302 303 303 303 303 303 303 303 303 303 303 304 304 304 304 304 303 303 303 302 302 301 301 301 301 301 301 301 301 300 300 299 300 300 300 299 299 298 297 297 296 296 295 295 295 294 293 292 291 291 291 291 291 291 291 291 291 291 290 290 290 290 290 289 291 293 292 291 291 292 293 292 293 295 295 295
296 299 300 301 301 301 301 301 301 301 302 302 302 303 303 303 303 303 303 303 303 304 305 305 304 304 303 303 303 303 302 301 301 301 301 301 300 300 299 299 299 300 300 300 300 299 298 298 297 296 296 295 295 294 293 292 291 291 290 290 290 291 291 291 290 290 290 290 290 289 290 290 290 290 292 292 291 291 293 293 292 292 293 293 293
296 299 300 301 301 301 300 301 301 301 301 301 302 302 302 302 302 303 303 302 303 304 304 305 304 304 304 303 303 303 302 301 300 301 301 301 300 299 299 300 300 301 301 301 300 299 299 298 298 297 297 296 295 294 293 292 291 290 290 290 290 290 290 290 290 291 290 290 289 289 290 290 290 290 291 291 291 291 292 292 292 291 291 291 291
297 299 300 300 300 300 300 300 300 300 301 301 301 301 301 301 302 302 302 302 302 303 303 304 304 304 304 304 303 303 303 302 301 300 301 301 301 300 300 300 300 301 301 301 301 300 299 298 298 298 298 297 296 294 293 292 291 290 290 290 290 290 290 290 291 291 290 290 289 289 289 290 290 290 290 290 290 290 290 290 290 290 289 289 289
298 299 299 299 299 299 300 300 300 300 300 300 300 301 301 301 301 301 302 302 302 302 302 303 303 303 303 303 303 303 303 302 301 300 300 301 301 301 301 301 301 301 301 301 300 299 298 298 298 298 298 298 296 295 294 293 292 291 290 290 290 290 290 290 290 290 290 290 289 289 289 289 290 290 290 289 289 289 289 289 289 289 289 289 289
299 299 299 299 299 299 300 300 300 300 300 300 300 300 300 300 300 301 301 301 301 301 302 302 302 302 302 303 303 303 302 302 302 301 301 301 301 301 301 301 301 301 301 300 299 298 298 298 298 298 298 297 296 295 294 294 293 291 290 290 290 290 290 290 290 289 289 289 289 289 289 289 289 290 290 289 289 289 289 289 289 289 289 289 289
Wind_Speed
20 23 23 24 27 27 24 21 21 22 22 23 24 24 23 22 22 23 22 19 17 14 12 11 8 6 5 5 4 4 4 5 6 7 9 9 9 9 8 6 4 4 6 7 6 5 6 6 7 7 7 7 8 8 7 8 9 10 10 10 9 11 12 13 17 20 19 16 16 17 16 16 17 16 16 17 18 18 18 19 19 19 19 19 19
15 20 21 22 25 25 22 20 21 22 22 22 24 22 21 21 21 21 21 19 17 14 12 11 9 7 7 7 6 6 5 4 6 8 9 9 10 9 7 6 7 6 6 5 4 4 6 6 6 7 7 7 8 8 8 10 10 9 9 9 10 11 11 13 15 18 19 18 17 17 16 16 17 17 17 18 18 18 18 18 18 17 16 15 15
11 14 18 21 23 24 21 20 22 22 21 21 23 22 21 21 20 20 19 18 16 13 12 12 11 9 10 9 8 8 7 6 8 9 8 9 10 9 7 7 8 6 4 4 4 5 7 7 7 8 8 8 8 9 9 10 10 8 8 8 11 12 12 13 15 16 18 19 19 17 16 17 18 17 16 17 17 18 18 17 17 17 16 16 16
10 12 14 17 20 21 22 22 21 21 21 20 22 22 20 21 21 19 18 17 16 14 12 13 12 10 11 11 10 10 9 8 8 8 8 10 10 9 7 6 7 7 6 7 6 5 6 7 7 8 8 8 9 9 8 8 8 7 7 8 10 12 13 14 15 16 17 19 20 19 18 18 18 16 15 16 17 16 16 17 18 18 17 15 14
11 11 11 12 14 17 21 23 21 22 23 21 22 23 22 22 21 19 18 17 16 14 12 12 12 11 11 11 10 10 10 8 8 8 9 11 11 10 8 7 9 10 9 8 6 6 7 7 7 8 8 9 9 9 9 9 9 9 9 11 12 12 14 15 16 17 18 19 20 20 18 17 16 15 14 15 17 16 15 15 15 16 16 15 15
11 12 11 10 10 13 18 21 20 22 23 23 23 23 22 21 21 20 19 18 17 15 13 12 13 12 12 12 11 10 10 9 10 10 9 9 10 9 8 9 11 12 10 8 6 6 7 8 7 7 8 9 10 10 11 11 11 11 11 11 12 13 13 14 14 14 15 16 16 16 16 15 15 15 13 14 16 17 17 16 15 16 17 18 17
10 12 12 12 13 14 15 17 18 20 23 25 24 23 21 20 21 21 19 18 18 17 15 14 15 15 13 12 10 11 12 12 12 12 10 8 8 8 10 12 12 11 9 8 9 8 8 7 7 7 9 11 13 14 14 14 13 12 12 11 10 11 12 12 11 11 11 12 13 13 14 13 13 13 13 13 14 14 15 18 19 19 19 20 19
12 12 12 13 14 16 16 16 16 18 21 23 24 25 25 24 23 23 22 20 18 18 18 16 16 16 14 12 12 15 16 14 12 11 9 8 9 10 12 12 11 11 11 10 9 8 7 7 7 8 13 15 16 17 17 17 16 15 16 16 13 11 12 12 10 10 10 11 12 12 12 12 12 12 13 13 14 14 15 18 20 21 21 21 20
14 12 13 14 14 15 16 17 17 18 20 21 22 25 26 28 27 25 23 22 20 19 19 17 17 18 17 16 17 19 18 15 12 10 9 9 11 12 12 12 12 13 12 10 8 7 7 8 8 10 15 18 18 19 19 19 20 19 20 21 18 15 14 13 12 11 10 10 10 10 10 10 11 12 13 13 14 15 16 17 19 20 21 21 20
15 13 13 13 12 13 14 14 16 17 18 20 22 23 25 28 29 26 22 22 21 21 21 19 18 19 20 20 19 19 18 16 13 11 11 11 13 13 12 12 13 13 11 9 9 10 8 8 8 9 13 15 15 16 18 18 19 19 19 18 14 11 9 9 9 9 9 9 9 9 9 10 10 11 12 13 13 14 15 16 18 18 19 21 22
16 14 13 14 14 14 13 13 14 15 15 16 17 19 22 26 29 27 25 26 26 25 24 24 23 21 21 20 19 18 19 17 15 13 12 13 15 14 13 12 12 11 11 9 9 9 8 8 10 11 11 9 8 9 11 11 12 12 11 9 7 6 7 6 6 7 7 7 7 7 8 9 9 10 11 12 13 14 15 15 15 16 17 21 24
17 15 14 13 14 15 14 13 14 15 15 15 15 15 18 25 30 30 28 29 30 28 26 27 27 25 23 20 17 19 20 18 17 15 13 14 16 15 13 12 12 10 8 8 8 8 9 10 10 10 8 6 5 6 6 5 6 7 6 3 3 7 9 8 7 6 5 5 6 6 6 7 9 10 12 13 15 17 17 16 15 16 17 20 23
19 19 19 16 14 15 16 14 14 15 15 16 16 17 17 20 25 29 30 30 30 31 31 30 28 26 24 20 17 19 22 21 18 16 14 14 17 16 14 13 12 9 7 9 10 10 11 10 8 7 6 5 5 5 3 4 6 7 5 2 5 8 10 8 6 7 8 9 9 8 6 6 9 12 13 15 17 17 17 17 16 18 19 20 21
19 20 23 21 15 15 16 15 14 14 15 15 16 17 18 18 19 24 29 32 33 33 31 29 26 25 25 21 18 20 23 22 20 17 14 15 18 16 14 13 12 10 10 12 13 12 10 9 7 6 5 5 6 4 2 3 4 6 5 2 5 8 11 8 5 7 11 13 12 13 11 9 11 14 16 18 19 19 18 18 19 21 21 19 18
22 21 23 22 18 16 17 16 13 12 12 13 15 15 16 17 19 22 25 30 34 35 32 28 26 26 26 23 20 21 24 22 20 18 16 16 18 17 14 13 12 11 10 11 11 10 8 7 6 6 5 6 7 5 4 3 2 4 4 2 3 7 10 9 8 10 14 15 15 18 14 9 10 14 16 18 18 19 20 20 20 21 22 19 18
23 23 22 20 18 18 19 17 13 11 10 11 13 14 15 17 20 21 22 24 30 34 33 30 28 27 29 26 22 22 23 21 20 19 18 17 18 17 14 13 11 8 7 8 9 9 8 6 6 7 7 7 6 4 3 2 2 3 3 2 1 5 6 9 10 11 13 14 15 16 11 6 9 13 14 14 15 17 19 19 18 20 20 19 19
23 24 21 20 19 18 18 17 13 11 10 11 11 11 12 14 15 16 18 20 26 30 30 30 32 32 31 27 22 22 22 21 20 20 19 17 18 17 14 12 9 5 6 9 9 7 7 7 7 6 6 4 2 2 2 2 2 3 3 2 2 2 3 7 10 11 12 12 12 12 7 4 10 12 11 11 13 16 17 17 17 18 18 17 18
21 22 21 21 21 20 19 18 18 16 14 12 11 11 10 10 10 11 13 17 22 25 25 27 32 34 30 23 20 22 23 21 23 23 19 17 17 16 14 11 7 5 7 12 10 7 7 7 7 8 6 2 0 0 1 2 3 5 5 6 5 3 4 8 12 13 13 11 9 7 2 5 10 11 11 11 12 13 15 16 16 16 15 15 17
21 21 21 21 21 22 22 21 22 22 17 13 11 11 11 10 10 10 11 13 18 21 22 24 26 27 25 20 19 21 22 23 23 22 18 16 16 15 14 11 7 7 10 13 12 10 9 6 7 9 8 4 3 3 4 5 6 7 8 9 8 7 8 10 12 12 11 8 5 5 5 8 11 11 10 10 10 10 12 14 15 14 14 15 17
22 21 21 20 20 22 23 21 20 20 18 14 12 12 12 11 11 12 12 12 15 18 20 23 23 23 22 20 20 22 23 24 24 21 18 16 16 16 15 13 9 9 10 12 11 10 10 10 10 10 9 8 7 7 8 9 9 9 10 10 9 9 9 9 10 10 9 6 3 6 9 10 11 10 10 10 9 10 13 14 14 14 14 16 17
22 22 22 20 20 20 21 20 19 19 19 17 14 13 14 14 13 12 13 14 14 15 16 19 23 24 24 22 23 24 25 26 25 23 19 17 17 16 15 14 12 11 11 10 10 9 9 11 14 13 11 11 11 11 12 11 10 10 10 9 9 9 8 8 8 8 7 5 3 7 10 8 7 7 7 7 10 13 14 13 13 13 14 16 17
23 22 21 21 21 20 20 20 20 20 20 19 15 13 15 17 15 12 13 15 16 16 16 16 19 22 24 24 24 26 28 28 26 21 19 19 19 17 16 16 15 14 14 12 9 8 10 14 16 16 16 17 16 15 14 13 10 9 9 9 8 7 7 7 7 7 6 3 3 6 6 6 6 5 4 6 9 11 12 12 14 15 15 14 14
24 23 22 22 22 22 21 21 21 20 20 20 19 17 16 17 17 15 14 16 18 19 19 18 18 20 22 25 27 29 30 30 28 24 21 21 20 17 17 17 16 15 16 15 13 12 15 16 17 17 19 19 17 16 15 12 10 9 8 8 7 6 6 6 6 5 4 3 5 5 5 5 5 7 8 6 7 10 11 14 18 16 12 10 10
24 24 23 22 22 23 22 21 22 21 20 20 21 22 18 16 17 18 17 15 16 18 21 21 22 22 23 25 28 32 33 33 32 27 24 23 20 17 17 18 17 16 17 18 18 19 19 18 18 18 19 17 16 15 14 12 10 9 8 7 7 6 6 7 6 5 3 4 5 4 6 5 5 8 8 6 5 9 13 16 18 13 8 8 10
25 24 23 22 23 23 22 22 22 22 21 21 22 22 22 19 18 17 17 16 15 17 19 20 22 25 27 28 29 32 34 36 35 29 27 25 21 17 17 18 18 18 18 19 21 22 21 20 20 19 18 17 16 15 13 12 11 9 8 7 6 6 7 7 6 4 3 2 3 5 6 5 5 7 5 6 5 12 14 17 15 9 6 8 10
25 24 23 23 23 22 22 22 22 22 22 22 21 20 20 21 20 18 17 18 17 16 16 17 18 22 25 28 31 32 34 37 36 31 28 27 23 18 18 19 19 19 19 20 22 23 21 21 20 19 19 17 16 15 13 11 10 9 8 8 6 6 7 6 4 5 6 6 5 5 6 5 5 4 4 4 7 13 15 17 16 9 4 6 7
24 23 23 23 23 23 22 22 22 23 21 21 21 20 19 19 20 19 19 18 19 19 18 16 17 19 22 25 29 33 35 37 36 33 31 31 27 22 19 19 20 21 21 20 22 22 21 19 18 18 18 17 15 14 13 11 10 9 9 8 6 6 5 3 3 6 7 6 5 5 6 4 2 2 4 3 8 13 14 17 17 9 4 5 6
23 23 23 23 23 23 22 21 21 21 20 20 20 21 21 21 21 21 22 20 19 22 22 19 18 20 20 20 23 30 35 36 36 35 35 33 29 24 21 20 20 21 21 20 20 21 20 19 18 18 18 16 14 14 12 10 9 9 9 8 6 5 4 3 4 6 5 5 5 5 3 2 1 2 2 2 6 11 12 14 15 11 8 7 6
24 23 23 23 22 22 23 23 22 22 21 21 21 20 20 20 22 23 24 23 22 22 22 21 21 21 21 20 20 24 30 34 36 37 36 33 28 24 22 21 20 20 19 19 19 19 19 19 19 18 17 15 14 13 11 9 7 6 6 5 4 4 5 5 5 5 6 8 7 3 2 1 0 1 2 2 5 8 9 13 14 12 12 10 6
23 23 23 23 22 22 23 24 24 24 25 25 23 21 20 18 18 21 24 25 25 24 22 21 22 23 24 23 22 23 25 29 33 36 35 32 28 25 23 22 20 18 18 18 18 19 19 19 18 17 15 14 12 10 9 7 5 4 5 6 7 7 8 9 8 8 9 9 6 4 3 2 1 1 2 2 3 6 6 10 12 12 12 10 6
22 23 24 24 24 23 23 24 24 24 25 24 22 22 24 24 22 22 24 25 24 24 23 21 22 23 23 23 24 26 26 27 31 35 34 31 29 27 25 24 20 17 17 18 19 20 19 18 17 14 12 12 10 8 6 7 7 7 8 10 10 9 9 9 9 9 9 7 5 5 4 3 3 3 4 3 1 2 3 7 10 10 12 12 8
23 24 24 24 24 24 23 24 25 24 23 21 19 21 26 28 27 27 28 27 25 23 21 21 21 23 24 22 23 26 26 27 30 34 33 31 30 28 26 23 21 19 18 18 20 20 20 20 18 14 11 10 11 10 10 12 13 12 12 12 11 10 12 12 10 8 8 7 6 6 5 4 4 4 5 5 4 2 1 6 7 7 10 12 10
24 24 24 23 24 23 24 25 26 25 23 20 20 23 25 26 25 25 24 22 20 19 18 18 19 21 24 23 23 24 24 24 27 33 34 31 30 29 26 22 21 20 19 19 21 21 21 21 19 15 12 12 14 15 16 17 17 14 14 14 13 14 15 14 10 8 9 8 6 5 4 4 4 3 5 4 3 2 2 3 5 4 6 8 9
23 22 22 23 23 23 24 25 25 22 20 18 20 24 26 23 20 19 18 16 16 17 18 18 18 18 19 21 22 23 23 22 24 31 34 32 30 30 28 25 23 21 20 21 24 24 22 21 20 17 16 15 16 18 19 20 19 17 17 16 16 16 16 13 9 9 10 7 5 4 5 5 4 4 5 4 4 4 4 2 1 2 2 3 4
22 21 21 21 22 22 23 25 23 21 19 20 23 26 26 22 18 16 15 15 16 16 17 18 19 18 18 19 20 22 23 23 25 30 33 34 33 32 30 28 26 22 21 24 26 26 24 22 21 19 18 18 19 21 22 21 19 17 17 16 16 16 14 11 10 11 10 8 7 7 8 6 4 4 5 5 4 3 4 5 5 5 4 3 2
22 21 21 21 21 23 24 23 21 20 21 23 24 24 23 20 17 15 14 15 14 14 15 18 19 19 19 20 20 20 21 23 25 29 33 34 34 32 31 30 27 23 22 25 26 25 24 23 21 20 19 20 21 22 22 21 18 16 15 15 14 14 12 10 11 11 9 9 10 9 8 6 4 4 6 8 6 3 5 9 9 8 7 6 6
22 21 21 22 23 24 23 20 19 20 22 22 21 20 20 18 15 13 15 17 16 15 15 18 19 19 21 22 23 22 22 23 25 29 31 31 29 29 30 29 25 22 21 22 23 24 24 23 22 20 18 19 21 21 20 19 17 15 14 13 13 12 11 11 10 9 8 10 10 8 7 7 6 7 8 10 10 7 5 4 4 7 10 7 6
21 20 21 22 22 22 21 20 20 20 21 22 21 20 18 15 13 14 17 18 17 15 15 16 19 21 22 23 23 23 24 24 25 28 30 29 29 29 29 27 23 20 19 19 19 20 21 22 22 21 19 18 19 19 18 16 16 14 13 13 13 13 12 12 11 10 9 10 10 10 9 10 9 8 8 9 11 10 7 4 1 6 12 9 5
21 20 21 21 22 21 20 22 22 20 21 23 23 20 17 13 11 14 17 17 15 14 13 15 17 20 23 24 24 23 23 24 26 29 31 31 32 31 28 25 23 20 16 15 14 15 16 17 19 20 19 18 19 18 17 16 16 15 14 13 13 13 13 12 12 11 11 11 11 12 11 11 11 10 8 7 8 9 10 9 6 7 11 10 7
22 21 21 22 22 20 20 21 20 19 20 22 22 19 17 14 11 12 15 15 14 13 14 15 16 18 21 22 22 22 21 22 25 29 31 32 31 28 25 23 22 19 15 14 15 17 16 14 14 17 19 19 19 18 17 16 17 16 15 13 13 12 12 11 11 12 11 11 11 12 11 11 12 11 9 7 8 9 11 12 11 10 11 11 11
22 21 20 21 22 21 20 21 20 18 19 21 22 19 16 14 12 11 12 14 14 14 15 16 16 17 18 18 19 19 18 18 21 26 31 31 29 26 24 23 21 18 15 14 15 17 17 15 14 15 18 19 19 18 18 18 18 16 15 15 14 13 12 11 11 12 12 10 9 11 12 10 9 9 8 8 10 10 9 10 11 11 10 10 11
22 21 20 21 22 23 22 23 22 19 15 17 22 22 19 16 14 12 10 12 15 16 16 17 17 17 17 17 16 16 15 14 16 22 28 30 28 25 23 21 20 19 18 16 15 15 17 17 16 16 18 19 20 20 19 19 18 17 17 16 15 14 13 13 13 13 12 10 10 11 12 11 10 11 10 10 10 9 8 7 7 8 8 9 10
21 21 20 19 21 22 22 23 24 23 19 17 20 22 22 21 19 13 11 12 14 15 17 19 18 17 17 17 16 15 14 12 14 19 25 28 27 24 20 19 19 19 19 18 16 17 18 19 18 18 18 19 21 21 21 19 18 17 17 17 15 14 14 14 14 12 10 10 11 12 12 11 10 11 12 12 11 11 11 11 10 10 10 10 11
20 19 19 19 20 21 21 21 22 23 22 21 20 19 20 23 23 18 13 12 12 13 15 18 18 17 17 17 17 16 14 11 12 17 22 24 24 22 19 17 17 18 18 18 18 18 19 20 20 20 20 21 22 22 20 19 17 16 16 16 16 15 13 14 14 11 9 11 12 11 10 11 11 11 12 13 13 13 13 14 14 11 7 7 10
20 18 18 19 19 19 21 21 20 20 21 21 21 20 21 21 21 21 19 15 12 12 14 16 16 16 15 16 17 18 16 13 11 13 17 19 20 18 15 13 11 10 11 14 16 18 20 22 22 21 21 21 21 21 20 18 16 15 15 16 16 15 13 13 13 11 10 11 12 9 9 12 13 12 12 12 13 14 14 14 14 13 10 9 13
19 17 17 18 19 19 20 20 20 20 20 20 20 20 21 22 21 21 21 19 16 13 13 15 17 16 15 15 16 16 16 15 13 12 13 15 17 16 13 11 11 12 13 15 18 20 21 22 22 22 22 21 22 22 20 18 16 15 15 16 17 16 13 12 13 13 11 11 11 9 9 11 13 14 13 11 10 12 13 13 14 17 17 16 16
18 16 17 18 18 19 20 19 19 19 19 20 20 19 19 21 20 19 20 21 19 16 13 14 17 19 17 16 16 16 15 14 14 15 15 16 17 18 17 16 17 17 17 19 22 24 24 23 23 23 22 22 22 22 20 17 16 15 15 16 18 17 14 13 14 13 11 10 11 11 11 12 14 16 15 12 11 14 15 15 14 17 19 19 17
17 15 17 17 17 18 19 19 19 19 19 18 19 19 18 18 19 20 21 22 20 16 14 13 16 19 18 17 16 16 14 13 13 15 18 20 21 22 21 20 19 18 16 16 19 24 26 25 24 24 22 20 19 19 17 16 16 15 14 15 17 16 15 14 14 12 10 10 12 14 14 14 14 15 15 15 15 15 17 16 15 15 17 17 16
16 15 16 17 17 18 18 18 18 18 18 18 18 18 18 17 18 20 21 21 21 19 17 15 16 17 17 16 16 16 14 12 11 11 14 19 23 25 24 21 20 20 17 14 16 22 26 25 24 24 21 18 16 15 14 14 15 15 14 14 15 16 15 15 13 11 10 11 14 15 15 15 14 13 14 17 17 16 16 16 15 14 14 15 14
15 16 16 16 16 17 17 17 17 17 17 17 17 17 17 17 17 18 20 20 21 21 20 18 18 19 17 14 15 17 15 12 10 9 8 12 17 22 25 23 22 23 20 14 13 19 25 26 25 23 20 17 15 14 13 13 14 14 15 15 14 15 16 15 13 12 11 11 13 14 15 15 15 14 13 15 17 16 15 14 14 14 14 14 14
14 14 14 14 14 15 15 15 15 15 15 16 16 16 17 17 16 17 19 19 19 19 20 20 20 19 16 13 12 15 16 14 11 9 8 9 11 14 18 20 22 23 22 17 14 17 21 23 24 23 20 17 16 15 14 13 13 14 15 15 14 14 15 14 13 13 13 12 12 13 14 16 17 16 13 13 15 16 15 14 15 15 15 14 13
Wind_Direction
255 244 240 233 226 226 225 222 221 219 219 222 221 217 212 207 208 211 212 213 211 207 208 210 210 205 198 205 224 254 288 308 315 324 329 328 326 326 329 329 320 296 275 272 279 297 298 294 297 298 286 268 263 271 279 279 277 278 275 273 280 289 288 286 287 289 292 294 293 293 291 291 293 291 290 292 293 293 291 290 292 294 295 298 300
269 249 244 236 225 223 221 216 218 218 218 222 223 217 212 210 210 212 212 212 213 211 206 206 210 203 205 213 218 234 252 266 286 307 324 329 330 330 326 313 308 309 306 308 316 300 284 276 278 287 288 280 270 265 261 256 254 263 271 270 273 281 282 282 287 291 289 285 282 281 281 283 287 289 290 293 296 298 299 300 302 301 298 294 290
286 265 252 240 227 223 219 214 216 215 214 223 226 218 212 214 214 213 212 211 215 215 198 198 208 203 203 214 220 230 237 244 271 302 326 329 324 321 315 308 313 324 321 307 302 291 285 283 279 276 276 278 273 264 261 257 250 252 261 263 265 266 265 271 282 289 289 281 275 278 285 285 283 289 298 302 303 306 307 306 304 303 301 295 289
286 280 270 256 244 235 223 218 217 213 212 222 228 222 216 217 217 217 217 212 212 212 195 195 210 208 205 214 218 225 238 255 278 303 317 318 319 318 312 300 295 295 281 273 278 286 288 291 293 290 283 282 280 272 271 270 264 265 268 264 265 265 261 261 268 276 282 281 275 277 288 293 292 300 312 312 310 310 310 312 315 319 321 317 306
279 278 277 272 266 249 228 222 222 215 212 218 224 221 216 217 219 219 219 215 212 208 194 198 216 219 214 216 219 230 244 255 273 291 302 309 313 313 310 301 293 295 292 281 277 283 285 282 282 285 282 281 280 276 273 269 264 262 259 255 256 262 262 260 262 268 275 280 281 282 292 302 305 309 313 308 305 308 311 315 318 316 309 299 289
275 270 268 269 268 253 234 228 226 221 215 216 221 221 216 217 218 217 219 219 217 210 196 202 219 223 221 221 219 229 239 242 257 278 292 299 300 302 302 298 298 305 308 297 281 276 274 267 264 265 266 267 267 263 259 255 254 253 252 251 256 266 272 271 271 275 277 279 284 289 296 302 304 305 308 308 310 316 319 315 305 296 294 294 290
288 276 268 264 260 257 251 239 231 228 222 217 221 226 225 222 220 219 220 223 223 218 205 205 216 220 224 232 226 219 226 237 254 274 294 300 293 289 289 294 299 301 301 292 282 278 278 281 284 276 266 262 260 259 257 256 256 255 256 257 257 262 269 272 275 282 284 283 285 290 294 299 304 308 311 310 309 311 312 309 304 302 304 305 303
315 297 283 275 268 267 267 257 243 236 229 223 225 228 228 228 228 224 222 223 226 224 217 213 218 220 220 228 229 223 229 244 259 276 298 297 288 288 292 299 302 296 292 289 284 286 291 291 286 273 267 263 261 263 263 262 262 260 264 270 271 267 265 265 270 278 282 285 288 291 297 304 309 309 306 304 303 303 307 311 310 310 311 312 317
328 312 294 284 278 273 270 265 257 248 240 237 239 237 231 230 232 232 228 229 230 230 229 226 226 228 221 215 222 231 238 246 254 272 291 292 292 295 293 293 293 290 294 294 283 277 270 265 262 264 267 264 260 260 260 260 262 262 266 273 279 281 275 269 271 277 283 288 292 297 303 305 304 303 304 309 311 310 312 312 310 312 316 324 336
327 323 308 294 283 274 269 265 260 253 247 245 247 247 239 231 232 234 234 237 239 237 234 227 225 233 231 223 225 233 241 249 256 269 287 299 303 299 290 287 286 283 282 282 278 272 260 252 253 260 270 271 265 258 257 260 262 264 267 274 284 295 297 289 284 282 284 289 292 298 302 299 297 298 305 312 312 308 309 311 315 321 325 330 339
317 317 311 302 296 286 274 268 266 261 258 253 247 247 242 233 232 234 234 237 242 241 233 223 219 225 229 228 228 231 240 256 269 275 289 303 305 301 293 291 290 283 275 271 274 275 268 257 253 255 267 279 276 262 259 261 263 268 275 282 296 319 324 319 311 295 283 282 284 288 293 297 299 301 306 309 304 301 303 309 315 319 319 321 330
312 313 307 296 295 296 288 276 268 263 262 262 256 249 242 231 228 230 233 237 242 241 234 224 218 219 224 226 228 234 244 259 271 277 290 303 304 300 294 292 293 287 275 269 269 268 262 255 250 255 267 279 280 277 283 291 293 298 305 318 348 342 333 331 338 338 329 317 309 300 293 298 305 306 306 305 302 301 302 305 308 309 313 319 324
311 314 317 309 295 295 298 290 279 270 265 265 264 258 252 241 232 230 232 237 243 243 235 225 220 226 231 225 220 235 247 257 267 276 289 301 302 299 294 294 296 283 258 255 259 257 257 257 256 261 265 270 276 280 299 310 311 320 330 30 34 353 332 329 345 0 355 343 336 331 319 314 323 329 331 330 328 326 321 321 324 324 325 324 325
315 313 322 325 312 298 297 296 292 287 278 272 267 259 255 258 254 244 236 237 243 246 240 229 224 234 242 232 219 231 245 253 263 274 288 297 299 298 293 292 294 283 262 255 252 249 249 247 248 254 259 271 278 277 278 282 307 325 324 30 30 344 323 321 331 338 333 326 324 329 332 335 343 353 359 358 358 357 352 351 351 345 341 335 335
325 322 324 328 326 320 315 306 300 302 296 282 271 261 255 257 261 259 250 241 241 245 245 236 229 236 243 237 224 229 241 252 262 274 287 295 296 295 292 290 293 288 276 267 259 254 252 249 251 251 245 255 266 271 280 285 320 325 320 44 26 317 306 313 320 321 319 318 322 328 333 346 358 4 7 5 3 360 356 359 357 349 345 343 345
333 333 328 326 330 336 336 325 309 303 304 295 279 267 261 259 260 263 261 248 239 241 245 244 240 240 241 236 227 228 239 250 262 272 284 291 293 293 288 287 292 287 276 272 264 260 263 263 264 263 255 258 266 267 273 283 303 311 333 46 267 268 291 310 312 309 307 310 317 317 318 351 10 8 7 3 359 352 349 353 354 348 346 345 344
338 340 336 330 331 333 332 329 320 303 293 296 294 280 266 262 262 263 262 251 240 238 242 243 243 242 240 235 230 230 236 246 258 269 278 286 291 290 283 282 288 280 269 272 272 277 274 253 249 274 279 272 257 233 237 261 278 294 319 322 284 288 318 295 288 291 295 302 310 301 291 13 19 5 1 2 355 345 343 348 348 346 346 343 339
336 337 336 333 332 328 324 322 318 309 294 287 295 297 283 271 268 266 261 253 245 242 243 243 241 239 236 231 230 232 238 249 258 263 269 280 288 287 278 276 270 237 245 263 275 303 301 255 249 284 305 326 56 321 273 277 280 284 291 294 293 287 264 263 274 287 295 306 322 319 315 43 26 4 354 357 353 344 343 345 343 342 343 338 330
332 332 331 330 328 326 325 320 314 311 304 288 281 290 292 284 278 271 263 256 252 250 250 250 245 237 228 223 226 233 242 252 256 255 260 274 285 283 274 267 247 217 236 257 273 302 311 286 266 277 290 305 315 313 305 295 292 289 287 288 284 273 271 277 283 290 293 299 330 7 27 35 26 4 348 350 353 348 343 336 335 339 339 332 324
328 327 327 328 328 326 326 327 324 320 315 301 282 280 290 290 280 271 263 256 252 251 250 251 247 238 229 226 226 231 240 249 253 253 257 268 280 281 271 258 234 213 231 254 267 284 294 290 284 282 285 294 302 308 308 300 293 289 286 286 284 280 288 293 289 292 297 289 312 10 17 20 14 358 351 356 352 338 330 328 335 342 334 324 321
325 324 323 323 324 324 325 329 329 325 322 313 292 279 287 290 280 270 267 262 256 250 246 246 244 239 237 236 233 229 233 243 249 252 256 264 274 278 270 257 237 215 217 235 250 261 267 272 279 284 286 288 294 304 305 299 292 290 287 285 286 286 291 291 286 290 293 284 320 3 8 3 351 346 353 350 330 321 324 329 334 333 322 316 319
323 321 319 318 318 320 322 325 325 323 322 316 300 284 283 283 279 272 264 261 259 254 247 243 243 240 237 237 233 228 232 240 244 247 256 264 271 274 269 259 246 228 216 212 219 239 246 251 264 273 277 281 287 295 298 294 291 288 282 279 283 285 289 290 284 284 287 297 2 9 356 338 331 326 316 311 310 314 322 326 326 321 314 315 320
323 319 316 315 315 315 316 318 319 320 320 315 308 301 288 276 273 275 267 257 253 253 251 249 245 240 235 231 226 225 231 238 239 245 258 265 265 268 268 261 253 241 228 215 208 216 228 238 249 259 266 273 280 287 290 289 286 283 278 277 279 280 285 283 274 274 293 5 34 14 331 319 323 308 303 310 315 317 321 324 325 322 317 322 326
322 319 316 316 315 313 312 313 315 316 317 315 311 308 300 284 273 272 271 264 253 247 250 252 248 242 239 235 229 227 230 234 236 243 256 260 256 258 263 259 253 245 236 227 222 222 227 235 241 249 259 270 278 283 284 284 282 278 273 274 275 276 275 266 261 279 330 20 19 330 297 306 314 305 322 357 335 314 322 327 327 328 333 339 330
323 319 317 316 316 313 309 310 312 313 313 312 310 307 305 299 286 274 269 268 260 249 247 250 249 246 244 241 237 235 234 234 237 245 253 251 246 250 259 259 255 251 243 236 235 237 240 244 249 255 265 274 278 278 278 278 278 275 270 268 266 266 262 254 261 293 320 317 293 279 280 298 296 298 348 32 317 302 322 335 338 348 353 339 327
320 318 317 317 318 314 309 308 310 311 310 310 310 310 307 302 296 286 272 261 256 253 252 250 246 247 247 245 243 240 237 237 239 243 247 247 244 248 258 258 255 253 248 242 241 244 247 251 256 263 268 271 274 274 273 273 272 268 267 266 259 258 259 253 268 288 268 244 250 263 272 279 280 304 13 22 299 302 326 341 344 354 354 333 330
321 319 318 318 318 315 311 309 309 309 309 308 309 311 308 301 298 296 290 276 261 256 261 260 250 248 251 253 248 242 240 241 240 239 242 245 247 250 256 258 255 253 251 248 246 247 249 253 256 260 264 267 269 268 267 267 264 262 263 258 248 251 258 256 281 281 260 244 247 256 263 267 283 353 14 347 300 308 330 342 343 351 8 356 353
323 321 320 319 318 316 314 313 311 311 312 312 312 312 308 304 303 303 302 296 278 262 260 262 260 254 253 256 253 245 240 240 240 240 242 244 245 249 256 262 262 257 254 253 251 248 248 251 251 254 259 262 263 263 263 261 259 257 251 245 251 275 287 289 291 285 274 271 271 267 273 283 333 345 338 319 302 308 328 346 353 7 18 2 5
322 322 321 320 319 317 315 312 310 309 309 309 313 315 312 311 314 311 304 299 291 280 268 261 260 260 259 256 250 245 243 241 240 242 245 247 247 251 257 262 266 264 258 256 253 247 244 246 248 251 255 257 256 255 252 248 250 256 255 254 271 289 280 272 276 280 283 284 281 276 276 271 274 299 286 286 293 298 324 349 357 11 15 360 4
321 321 321 319 318 317 315 313 312 311 308 306 307 308 304 302 308 313 308 298 291 286 279 266 259 261 263 258 250 247 251 249 243 241 244 249 252 253 253 255 261 264 259 252 247 243 242 245 248 247 245 248 249 247 245 252 268 285 285 279 274 261 248 247 247 248 259 270 269 256 240 218 195 264 245 249 289 288 316 350 357 2 5 1 4
321 319 319 318 319 318 317 316 316 314 312 310 307 303 301 298 296 299 301 299 293 287 282 275 267 263 265 264 258 253 252 250 245 242 242 247 252 251 249 249 252 257 257 251 244 238 234 238 243 243 240 244 248 248 250 253 251 245 244 253 263 262 252 249 247 247 256 263 257 247 231 199 205 235 209 168 146 250 296 346 356 356 0 5 15
319 317 317 318 320 320 319 318 317 313 310 310 309 308 309 309 306 300 294 293 295 291 283 277 272 266 266 267 266 264 261 256 250 245 242 243 247 247 247 249 251 251 251 250 244 234 227 229 234 233 230 236 240 237 231 228 228 229 229 232 240 247 250 256 262 262 258 248 238 241 230 207 218 220 183 162 144 133 288 315 327 352 9 10 13
319 318 321 321 320 319 320 322 322 314 305 306 311 315 317 318 316 310 301 293 294 297 293 287 278 269 265 264 265 270 273 268 255 245 240 238 240 240 243 249 250 246 246 247 244 236 230 232 233 223 213 224 234 232 226 224 224 224 225 225 225 231 245 259 268 264 252 238 229 240 234 213 212 184 151 161 194 166 153 286 300 343 16 8 3
321 324 326 323 321 321 323 327 330 324 314 311 314 318 321 320 316 314 313 309 306 304 301 296 286 275 270 268 264 266 271 271 260 247 238 233 233 238 243 246 244 242 243 244 243 239 236 236 234 221 208 215 228 229 227 231 233 229 227 230 231 235 249 262 262 253 247 226 201 227 238 217 204 193 174 181 206 183 158 157 139 68 35 349 340
329 331 331 328 329 330 328 330 334 334 328 323 319 319 321 320 315 314 318 316 309 301 293 288 285 281 280 279 274 269 266 265 260 251 241 236 238 243 244 239 235 236 239 240 240 240 238 237 235 226 214 213 222 228 231 238 244 241 237 238 241 245 254 259 250 248 245 219 199 221 233 217 199 201 192 178 166 170 205 216 184 141 128 128 113
336 336 335 334 332 330 328 330 332 330 328 326 323 322 324 320 314 316 318 312 304 297 291 288 287 285 283 283 283 277 267 260 256 253 248 244 243 242 237 232 232 236 239 241 241 240 238 236 233 229 224 222 226 232 237 243 246 245 243 245 248 251 254 252 247 247 239 221 218 229 227 204 198 220 206 182 163 168 232 236 218 188 167 143 127
338 338 335 332 329 328 331 333 329 328 331 331 326 324 324 319 312 314 316 311 302 294 290 291 291 288 284 283 285 285 278 268 258 253 249 244 238 232 229 230 235 238 239 242 243 241 239 237 233 228 227 231 234 236 241 245 245 244 244 245 246 248 249 248 250 250 236 220 221 226 209 185 201 236 223 190 174 175 200 232 231 204 189 166 137
340 338 334 333 334 336 338 336 329 330 337 337 330 325 321 318 320 322 319 315 310 303 297 293 290 287 285 286 289 290 286 276 260 248 241 232 223 218 219 222 227 232 237 244 246 242 238 237 235 229 225 231 238 240 241 243 244 243 244 242 241 242 244 246 249 251 242 224 215 219 214 198 202 230 229 198 189 188 180 159 144 186 181 165 136
341 339 338 341 343 342 340 335 329 331 338 340 336 329 318 313 324 327 318 312 310 310 309 304 297 291 288 290 293 293 288 277 261 244 231 220 213 212 213 216 218 221 228 238 246 250 246 241 236 229 222 226 235 238 236 236 239 242 243 244 243 241 240 241 242 243 241 229 218 221 227 215 206 215 222 207 197 189 176 167 160 169 175 168 152
340 340 342 346 345 340 338 339 337 340 345 345 341 332 318 311 317 323 316 309 307 314 324 328 321 307 296 293 295 296 289 277 259 239 223 214 212 210 209 214 218 217 217 224 235 247 256 252 236 224 219 221 229 234 233 230 232 237 240 242 244 244 242 241 239 237 239 236 223 222 230 228 217 216 214 200 190 187 187 186 179 172 183 188 176
340 341 340 342 340 337 342 348 349 349 353 355 352 344 329 315 310 312 312 308 305 312 324 333 334 326 313 304 301 296 287 276 261 240 224 217 216 214 213 217 221 220 221 223 226 234 244 245 232 222 221 222 225 229 231 230 230 234 236 236 238 242 244 245 242 240 243 246 233 225 231 232 216 205 208 210 205 197 193 196 193 188 193 197 189
341 341 338 336 336 337 343 348 344 339 345 358 1 359 350 333 314 299 297 305 305 304 309 318 327 331 327 320 312 300 285 272 258 241 228 222 222 221 219 220 222 222 224 225 224 228 235 236 229 223 224 226 224 225 231 235 233 232 235 237 239 239 240 243 245 245 247 249 236 226 230 230 209 196 207 221 212 192 178 181 192 192 185 181 182
339 335 332 334 336 336 340 344 342 339 339 345 354 0 3 356 340 317 294 295 300 300 303 308 315 324 327 325 319 307 288 266 244 233 229 226 223 220 220 226 233 237 236 230 226 230 235 235 230 224 224 228 229 230 236 243 242 236 236 240 243 241 239 242 247 247 243 242 235 228 231 234 218 206 214 219 203 186 183 185 186 192 196 193 187
336 330 328 333 335 334 336 339 340 339 337 335 339 347 356 358 354 344 324 303 298 306 311 308 306 310 317 320 317 308 295 273 243 229 225 223 220 221 227 236 243 248 244 232 225 228 234 235 232 228 226 231 236 240 244 247 245 240 237 239 243 244 239 239 245 247 239 238 240 233 225 223 214 205 212 215 203 194 196 196 191 192 201 197 188
336 330 327 331 333 331 333 335 335 336 337 338 338 341 344 348 352 350 343 331 315 315 323 323 317 312 311 313 315 310 299 283 256 226 214 213 215 220 230 237 236 236 234 227 226 230 233 233 232 232 231 232 236 242 245 245 242 239 235 234 241 248 244 238 243 247 240 239 243 236 220 216 210 205 214 223 215 206 207 206 195 187 183 188 194
339 332 326 329 331 329 330 331 331 332 336 339 339 338 341 344 345 344 346 346 339 327 331 342 344 337 326 318 318 317 305 286 261 230 213 214 213 210 213 228 238 242 241 235 231 232 231 231 232 233 232 231 234 240 245 245 245 244 239 235 240 248 246 238 241 245 242 242 244 238 223 212 203 201 215 229 215 200 208 218 206 192 191 199 205
341 331 324 327 330 329 328 330 330 329 332 336 337 337 339 343 343 339 342 349 346 332 324 335 346 347 343 333 326 324 319 298 267 241 228 224 218 210 211 226 241 249 249 240 232 230 229 231 234 236 236 236 239 245 250 250 249 249 244 241 244 248 246 239 239 241 240 238 237 233 225 217 208 206 214 219 202 190 203 220 218 205 205 213 216
340 330 324 327 329 328 328 329 329 330 332 333 334 336 338 341 341 339 341 348 349 335 319 324 337 344 348 347 338 329 323 313 286 257 238 225 217 214 217 227 237 243 244 239 234 231 230 231 234 238 242 245 248 253 258 256 253 251 247 245 247 250 248 243 240 239 232 225 225 225 224 226 225 220 216 216 216 211 214 224 229 220 216 221 224
336 326 324 327 327 327 328 329 329 331 334 333 334 337 339 339 340 342 343 346 346 339 334 338 342 338 338 347 350 341 326 317 309 285 251 230 221 218 219 225 232 237 241 248 243 233 229 231 235 240 245 252 256 260 264 262 257 254 250 247 248 250 250 247 245 240 231 223 222 223 225 230 237 233 219 216 223 227 225 226 231 228 220 220 220
330 323 324 328 328 327 329 331 331 331 334 335 336 339 340 340 343 346 344 343 343 346 349 353 350 340 331 336 351 353 342 325 315 305 276 245 232 227 225 225 228 233 238 245 240 228 226 231 237 241 246 254 259 263 268 268 263 257 252 247 246 248 249 250 248 241 234 229 226 225 224 227 233 236 226 217 221 227 228 224 222 220 219 218 214
322 318 319 325 329 329 331 334 336 336 338 339 340 342 342 343 347 349 348 349 352 355 355 356 355 351 343 339 345 356 356 347 328 310 288 263 247 238 232 231 235 239 239 234 225 221 225 230 235 240 248 257 261 265 271 273 270 265 258 252 249 248 248 248 244 238 235 234 230 224 219 220 228 235 233 223 220 224 224 220 217 218 219 217 210